Regional Weather Roundup
Issued by NWS

Home | Current Version | Previous Version | Graphics & Text | Print | Product List | Glossary Off
Versions: 1 2 3 4 5 6 7 8 9 10 11 12 13 14 15 16 17 18 19 20 21 22 23 24 25 26 27 28 29 30 31 32 33 34 35 36 37 38 39 40 41 42 43 44 45 46 47 48 49 50

000
ASUS43 KTOP 221459
RWRKS

WEATHER ROUNDUP FOR KANSAS
NATIONAL WEATHER SERVICE GOODLAND KS
1000 AM CDT SUN OCT 22 2017

NOTE:  "FAIR" INDICATES FEW OR NO CLOUDS BELOW 12,000 FEET WITH NO
SIGNIFICANT WEATHER AND/OR OBSTRUCTIONS TO VISIBILITY.

KSZ001>006-013>018-027>032-041>047-221600-
NORTHWEST KANSAS

CITY           SKY/WX    TMP DP  RH WIND       PRES   REMARKS
GOODLAND       SUNNY     48  22  35 SW13G22   30.21S
HAYS           SUNNY     47  30  51 W9        30.20R
HILL CITY      SUNNY     45  31  58 W6        30.20R
RUSSELL        SUNNY     44  36  73 W7        30.18R
$$

KSZ061>065-074>080-084>089-221600-
SOUTHWEST KANSAS

CITY           SKY/WX    TMP DP  RH WIND       PRES   REMARKS
DODGE CITY     SUNNY     50  25  37 W8        30.25R
ELKHART          N/A     46  27  47 SW5         N/A
GARDEN CITY    SUNNY     43  27  53 W9        30.25R
GREAT BEND     SUNNY     48  32  53 W8        30.21R
LIBERAL        SUNNY     49  28  44 W6        30.28R
$$

KSZ066>073-081>083-090>101-221600-
SOUTHEAST KANSAS

CITY           SKY/WX    TMP DP  RH WIND       PRES   REMARKS
CHANUTE        MOSUNNY   53  46  77 NW8       30.15R
COFFEYVILLE    CLOUDY    54  48  80 N10       30.15R
HUTCHINSON     SUNNY     51  39  63 W8        30.20R
MEDICINE LODGE   N/A     50  38  63 W8        30.22R
NEWTON         SUNNY     53  43  68 W8        30.19R
PARSONS        LGT RAIN  53  46  77 NW9       30.16R
WICHITA INTL   MOSUNNY   55  43  63 NW7       30.19R
WICHITA JABRA  SUNNY     53  44  71 NW7       30.18R
WICHITA MCCONL SUNNY     53  41  63 NW8       30.19R
WINFIELD       SUNNY     54  47  77 NW12      30.21R
$$

KSZ007>012-019>026-033>040-048>060-102>105-221600-
NORTHEAST KANSAS

CITY           SKY/WX    TMP DP  RH WIND       PRES   REMARKS
CONCORDIA      SUNNY     49  40  71 W9        30.17R
EMPORIA        SUNNY     52  44  74 W9        30.17R
LAWRENCE       SUNNY     52  48  86 W10       30.13R
MANHATTAN      SUNNY     51  45  79 CALM      30.17R
OLATHE IND     SUNNY     52  47  83 NW9       30.12S
OLATHE EXE     SUNNY     51  45  79 NW8       30.11R
SALINA         SUNNY     52  43  71 NW3       30.19R
TOPEKA BILLARD SUNNY     52  46  80 VRB6      30.14R
TOPEKA FORBES  SUNNY     54  45  71 NW7       30.14R
$$



USA.gov is the U.S. government's official web portal to all federal, state and local government web resources and services.